Wind_Speed
2 4 3 4 5 6 7 8 9 10 10 10 9 8 9 10 10 10 11 11 9 5 7 7 6 5 2 6 2 12 13 9 6 5 5 3 1 2 5 6 4 5 4 6 7 12 8
2 2 3 3 4 5 5 7 8 9 9 9 8 7 7 7 7 8 10 9 6 4 7 6 8 5 2 4 4 12 10 10 11 6 9 7 2 2 6 4 4 4 8 8 4 6 5
2 2 2 3 3 4 4 5 7 8 8 8 7 6 5 5 7 8 6 5 6 4 6 4 4 4 8 2 5 10 8 10 9 8 3 7 3 4 4 6 5 7 6 4 3 4 4
3 2 3 3 3 2 3 4 5 7 8 8 7 5 4 3 4 6 2 7 7 4 6 4 3 4 3 4 6 6 7 7 6 6 4 9 9 8 5 7 4 4 3 3 3 5 4
4 3 2 3 3 2 1 3 4 7 8 7 7 4 3 3 4 2 4 4 6 7 3 3 4 4 2 4 4 10 10 8 9 7 7 5 6 4 3 5 4 1 3 4 2 8 5
5 4 3 2 4 3 1 2 4 6 7 7 7 5 3 2 1 1 3 1 5 6 3 3 5 4 5 4 5 9 7 8 4 7 6 7 6 4 3 3 4 5 4 3 5 5 5
7 6 4 3 4 4 2 1 2 4 5 6 7 5 4 3 2 1 5 2 4 4 11 3 2 3 2 6 5 8 12 8 4 6 2 4 5 5 5 2 2 1 2 1 3 1 2
9 8 6 5 5 5 4 2 0 2 5 6 6 4 5 3 2 2 4 5 3 3 4 6 4 4 3 5 4 10 14 4 3 2 2 5 2 2 2 2 2 2 1 1 2 1 1
11 10 8 7 6 6 5 4 2 1 3 5 5 3 3 3 4 4 5 5 4 2 4 3 3 3 3 5 3 6 8 3 5 4 4 3 2 2 2 2 3 2 3 3 3 2 4
13 11 10 10 8 6 6 6 4 1 1 3 4 4 4 1 3 3 3 1 2 2 4 3 3 3 3 3 4 2 5 1 5 4 3 3 2 2 3 2 2 2 1 2 3 3 4
15 13 13 13 10 9 7 7 5 3 1 1 1 2 4 5 3 3 1 2 2 2 3 2 2 3 3 4 1 5 3 2 3 2 4 2 4 2 2 1 1 1 2 2 2 2 4
21 18 17 16 14 11 9 7 7 5 2 1 2 2 2 2 4 3 2 1 1 4 3 1 1 1 2 2 3 4 4 5 2 3 5 1 1 1 2 3 3 5 4 4 4 2 2
24 22 20 19 17 14 12 9 9 7 4 1 2 4 3 2 2 3 2 1 4 3 1 1 0 1 0 1 2 2 2 0 4 2 2 2 1 2 3 4 4 3 4 3 4 1 6
27 25 24 22 20 18 16 13 11 9 6 3 2 3 8 6 3 3 2 4 2 1 1 1 2 1 1 3 1 2 2 3 3 3 2 4 4 5 3 1 3 3 2 4 6 3 5
28 27 26 24 24 22 20 16 12 11 8 6 5 4 3 4 2 1 4 2 3 3 4 5 2 2 0 1 1 2 3 3 3 7 6 3 2 1 4 2 1 4 5 1 1 2 2
29 29 27 27 26 25 23 19 15 13 11 9 5 3 4 2 1 1 3 4 3 2 4 2 1 1 2 2 1 1 3 3 2 1 1 2 3 2 0 1 1 1 2 3 1 3 6
21 22 27 33 27 30 27 22 19 16 13 10 3 2 6 1 2 4 3 5 3 2 1 3 2 1 3 3 3 3 3 1 1 1 2 3 3 1 1 8 8 4 3 2 0 4 4
17 17 14 14 22 24 26 25 24 21 19 11 1 2 5 2 3 1 2 3 3 3 1 2 3 3 3 6 5 4 5 3 1 3 5 3 4 4 11 1 3 3 4 5 4 6 3
16 14 15 18 17 20 26 26 28 29 27 11 2 2 4 3 3 2 1 1 1 2 2 3 4 3 2 6 1 6 4 2 2 2 5 4 2 3 5 4 3 5 5 3 3 3 7
13 13 11 14 17 20 27 30 32 29 26 11 3 2 3 3 1 3 3 3 3 3 1 1 3 3 2 2 2 3 4 0 4 1 2 1 2 7 11 4 4 4 6 12 12 4 5
10 11 11 10 13 17 27 33 32 30 31 8 2 2 3 3 4 4 2 1 2 2 2 2 1 5 6 3 2 5 2 1 1 4 2 2 5 3 6 5 5 11 6 12 18 22 12
6 6 7 9 11 20 30 36 36 34 32 5 4 3 1 2 3 5 4 4 6 4 6 4 4 3 6 6 7 4 5 3 6 3 4 2 4 2 5 5 10 18 13 18 21 22 24
6 6 7 8 13 21 31 39 37 38 29 5 4 4 3 6 4 5 5 5 7 7 2 1 5 4 4 10 3 3 1 2 3 8 8 4 3 1 6 3 6 11 14 21 17 14 18
4 4 4 8 15 22 31 33 32 31 29 8 7 7 3 3 4 5 6 6 7 8 2 2 1 6 1 6 5 3 5 4 6 4 1 5 5 3 3 3 5 5 3 3 13 5 5
5 5 8 12 12 22 24 29 26 30 31 10 13 6 3 3 3 4 8 5 4 3 2 3 2 2 6 2 1 5 3 5 3 3 1 2 4 3 3 3 9 7 2 4 5 5 1
7 7 9 14 13 21 24 30 30 38 32 15 16 8 4 5 7 5 4 4 4 3 3 2 3 3 2 1 2 4 5 3 4 4 3 2 3 5 2 4 7 5 3 1 2 4 1
7 7 10 12 14 17 29 28 24 27 26 20 10 9 5 2 1 2 3 4 5 3 3 3 3 1 2 2 3 4 5 4 3 5 4 3 2 12 11 7 8 2 2 0 4 4 2
6 6 8 13 17 17 18 19 24 26 29 24 9 16 5 2 1 3 2 4 3 2 5 5 4 1 2 3 4 4 4 5 1 3 6 8 8 4 4 5 10 1 2 5 3 2 2
7 6 5 7 12 20 19 22 20 28 36 27 5 16 10 8 3 3 5 5 3 1 4 6 1 4 5 3 2 2 3 3 4 4 2 3 6 5 10 5 1 2 2 2 2 3 2
Wind_Direction
116 131 120 98 86 73 59 49 44 46 48 49 56 66 73 71 92 111 105 105 109 105 24 18 13 358 63 49 19 347 356 3 355 20 30 12 63 113 120 115 100 92 140 59 91 82 67
124 142 135 116 92 76 62 47 41 44 46 47 56 67 79 86 91 113 110 90 78 85 14 20 23 26 71 76 349 358 0 22 27 51 42 34 10 74 87 64 69 110 105 134 99 109 121
167 157 160 131 108 83 63 48 38 38 42 44 50 61 84 107 104 135 119 40 14 7 9 10 38 47 56 132 8 8 29 30 21 42 44 16 305 68 108 92 141 132 89 82 167 151 130
182 169 173 153 129 103 75 55 41 35 36 38 42 56 74 108 131 152 205 329 337 329 8 39 28 63 86 14 359 21 25 34 53 37 28 24 78 95 80 121 79 75 73 138 203 147 175
200 189 174 172 160 140 83 55 40 34 32 30 32 45 72 124 149 166 310 327 356 319 344 12 54 73 64 346 25 8 8 351 348 18 32 31 65 90 55 87 50 284 204 201 231 203 148
217 202 183 187 184 178 144 44 38 34 29 26 26 43 75 118 159 300 337 295 342 25 18 55 65 56 15 340 343 344 1 5 4 343 12 40 47 70 52 75 216 204 218 202 207 210 169
222 215 204 195 196 195 188 120 41 33 29 28 31 63 74 97 107 358 354 349 27 359 38 74 317 92 360 340 37 15 355 349 33 43 67 10 86 190 198 169 174 152 272 230 350 19 186
224 223 217 208 201 203 202 195 126 24 25 23 34 87 77 86 95 25 9 75 99 140 75 42 60 64 46 351 8 354 6 56 34 72 28 24 229 193 141 123 115 107 142 157 358 354 303
222 227 223 221 216 211 211 205 201 51 27 29 36 71 69 75 99 62 65 86 109 130 82 11 49 56 323 38 57 323 8 330 56 59 11 141 349 339 29 40 116 47 181 179 179 299 263
219 226 232 226 223 219 214 207 207 188 50 46 56 50 30 92 124 84 83 97 151 94 82 350 357 359 358 116 43 327 10 77 34 137 101 90 316 110 73 55 63 266 358 98 97 71 233
216 227 236 234 226 221 216 210 210 201 193 54 45 24 44 57 113 95 14 150 159 125 358 8 351 319 32 64 29 2 352 24 105 113 110 208 161 137 144 89 89 224 63 63 39 37 16
219 219 226 231 231 227 220 211 211 209 206 97 66 50 89 85 71 52 97 201 150 46 266 122 22 23 65 39 24 326 16 35 106 83 34 86 290 53 123 80 102 139 78 46 54 75 315
223 222 225 228 228 225 224 210 212 210 201 162 106 68 84 86 96 124 97 15 25 139 75 108 172 97 319 59 23 31 15 334 175 93 194 351 238 15 116 87 11 79 93 316 323 355 238
228 230 229 230 227 225 221 214 208 201 191 172 144 94 75 78 93 132 57 43 271 51 183 224 118 115 113 21 28 354 1 288 224 110 123 176 296 178 176 218 185 191 183 180 252 246 277
234 238 235 235 230 224 220 212 205 198 186 173 153 93 74 36 94 118 76 66 233 197 148 149 123 74 26 104 9 7 229 233 225 193 170 136 251 72 34 352 122 173 209 110 62 212 359
238 241 243 235 235 228 218 210 203 190 183 168 148 102 35 34 66 70 80 241 202 119 129 135 227 181 239 207 193 159 206 194 179 75 157 199 347 352 1 312 355 193 164 95 90 284 273
220 235 238 237 239 230 222 211 196 181 172 160 133 80 4 52 105 47 174 227 155 74 351 168 179 220 239 207 199 223 253 328 131 134 75 127 120 308 79 206 183 154 211 161 344 185 216
224 227 226 221 228 235 224 208 188 171 168 159 87 107 352 95 70 31 178 223 105 169 74 117 118 158 189 156 186 248 238 225 136 174 169 174 153 213 211 39 1 316 226 164 191 210 239
213 220 228 217 208 215 221 208 190 181 173 148 115 91 17 355 161 212 270 40 244 139 235 172 180 196 191 183 235 210 233 92 268 189 167 194 244 333 311 6 355 225 207 175 75 44 203
195 211 196 206 200 204 211 206 194 184 170 150 121 117 26 30 37 133 183 202 206 30 125 155 121 79 106 229 269 258 244 109 7 203 165 57 171 194 246 212 130 207 210 206 204 198 232
191 187 193 206 206 196 205 201 192 181 176 164 95 153 122 171 234 171 86 109 175 167 5 212 273 197 163 219 276 232 186 356 240 232 79 136 228 220 265 235 212 233 198 202 217 228 222
184 192 194 208 208 192 200 195 189 182 171 120 138 145 52 109 98 110 179 218 197 165 166 241 204 197 189 202 200 226 146 204 212 75 145 2 270 75 285 269 252 266 233 229 226 231 243
181 195 206 213 195 186 189 187 179 179 168 142 149 103 110 147 142 143 201 196 207 161 186 154 175 121 219 246 140 155 119 58 207 162 179 166 189 120 270 332 326 287 240 221 235 231 234
176 177 162 166 176 178 185 191 194 193 181 143 146 138 120 163 176 203 175 188 192 204 207 143 89 144 157 102 107 57 47 34 37 13 1 156 149 180 281 1 263 263 197 203 228 262 300
174 151 138 157 168 177 186 192 196 195 191 173 163 151 147 147 174 172 189 173 115 47 118 133 66 351 134 92 49 349 332 1 343 13 322 358 152 224 247 215 303 300 295 148 163 278 236
156 149 145 153 163 190 191 193 200 189 193 188 174 141 113 122 218 121 152 174 173 142 131 107 25 110 310 152 127 214 234 228 277 328 16 345 2 208 155 235 249 239 267 180 93 286 78
153 147 149 149 160 178 193 197 200 203 201 191 177 166 111 137 116 99 176 176 131 108 103 140 161 152 25 144 187 200 245 178 234 186 174 140 218 222 227 247 278 257 269 76 97 241 130
160 163 162 171 171 181 192 196 205 197 200 192 189 182 160 97 75 17 15 142 114 153 158 149 112 270 100 179 187 222 193 228 149 177 180 174 168 197 199 229 269 70 26 179 162 349 141
178 176 184 190 182 186 196 209 205 208 200 206 152 184 173 90 104 109 93 80 45 24 125 182 159 154 166 153 207 202 223 180 185 253 356 246 201 186 200 218 42 343 92 136 151 130 164
Height
833 832 833 832 832 832 832 831 830 829 828 827 826 825 824 824 824 823 822 822 822 823 823 821 820 819 819 824 829 825 822 819 817 815 815 816 817 817 826 832 836 848 853 856 860 862 869
832 833 832 832 832 832 832 832 831 830 828 828 827 826 826 826 826 826 825 825 825 824 823 822 821 819 820 827 828 826 823 820 818 817 816 816 818 818 828 836 838 846 852 857 858 862 868
831 832 832 832 832 832 832 832 832 831 829 828 827 827 827 826 826 827 828 828 827 825 823 822 821 821 824 831 828 827 824 822 821 820 820 819 817 820 829 840 845 850 859 858 860 861 866
830 831 831 831 832 832 833 832 832 831 830 829 828 827 827 827 827 827 828 828 827 826 824 823 822 821 832 831 830 828 826 824 822 822 821 821 820 823 831 840 845 854 857 862 858 860 867
829 829 830 830 831 832 833 832 832 831 830 829 828 827 827 827 828 828 828 827 827 826 825 824 823 823 833 831 831 831 829 828 825 824 823 822 821 833 839 849 858 856 861 863 860 858 864
828 828 828 829 830 831 832 832 832 831 830 830 829 828 827 828 828 828 827 827 826 826 825 825 824 828 834 837 834 833 831 829 829 827 827 828 839 848 852 859 859 860 858 856 859 861 863
826 827 827 828 829 830 831 831 831 831 830 830 829 828 828 828 828 827 827 826 830 831 831 839 839 838 837 836 835 834 833 830 830 834 840 841 848 853 849 851 851 850 852 855 863 859 860
824 825 826 827 827 828 830 830 830 830 830 830 829 829 828 828 827 828 827 828 833 835 842 839 838 839 839 839 838 836 835 835 835 842 841 852 852 854 851 849 849 850 852 862 865 864 865
821 823 824 825 826 827 828 829 829 829 829 829 829 829 829 828 828 828 829 831 832 834 839 842 841 842 842 841 848 846 842 841 842 846 856 853 858 855 853 856 857 866 860 861 868 866 868
818 820 822 823 824 825 826 827 828 828 828 828 828 829 829 828 831 829 830 831 831 832 845 845 844 844 843 842 847 845 845 847 846 853 858 861 858 856 860 863 868 860 870 868 868 880 874
814 817 819 821 822 823 825 826 827 827 827 827 828 828 828 827 829 830 833 832 831 832 840 847 846 845 844 846 849 847 845 843 848 852 854 853 860 860 860 866 866 870 873 874 875 882 891
809 812 815 818 820 822 823 825 826 826 827 826 827 828 828 828 829 832 831 833 833 837 846 843 846 846 846 847 850 850 849 847 849 855 863 864 863 862 864 871 867 871 874 878 893 897 916
805 807 810 813 816 818 821 822 824 826 826 826 827 827 827 828 830 831 831 834 839 835 838 842 845 847 847 850 851 851 852 854 856 856 859 866 865 868 867 872 873 872 875 877 883 899 870
799 803 806 809 811 815 818 820 822 824 825 826 827 827 828 829 830 830 831 837 834 830 839 846 844 846 847 855 855 854 856 860 857 855 872 867 855 872 867 866 866 874 869 861 855 879 876
793 797 798 803 807 810 814 817 820 822 824 825 827 826 829 830 830 830 834 843 834 834 839 845 847 848 852 854 855 857 861 860 852 858 865 878 859 873 874 871 869 874 873 873 880 895 909
788 791 793 797 801 804 808 812 817 820 823 824 827 828 830 831 831 831 835 832 834 837 841 842 833 841 842 855 856 860 855 852 852 856 854 867 880 878 876 873 875 872 873 880 881 864 868
783 785 787 789 794 795 802 806 813 817 822 824 827 830 832 831 833 837 839 842 836 840 839 839 839 839 845 852 860 859 849 854 856 859 856 860 873 884 879 877 870 879 880 881 880 875 854
778 781 783 786 789 793 797 802 809 814 820 824 827 831 834 833 838 841 841 835 838 841 842 843 845 845 843 853 855 862 856 850 857 859 859 858 884 891 873 875 875 873 875 876 860 859 876
773 776 779 782 785 788 793 797 804 809 815 823 831 836 835 835 837 842 840 840 841 844 844 847 844 847 851 850 862 857 852 860 862 861 866 869 884 891 865 886 881 878 876 877 883 888 883
769 772 776 778 781 783 789 793 800 806 813 818 829 831 839 840 844 840 840 839 840 845 845 846 850 854 856 854 856 864 859 863 866 863 860 866 896 870 833 849 879 886 868 861 858 881 851
767 768 771 773 775 779 783 790 796 801 810 815 824 827 832 842 845 842 840 846 843 843 850 850 850 853 867 864 864 859 861 868 868 863 871 877 888 887 875 877 869 856 858 859 855 840 839
764 766 766 769 772 775 780 784 791 799 806 814 821 826 837 842 844 846 847 845 844 850 855 854 857 857 858 854 857 856 866 878 865 874 880 887 881 891 879 869 863 855 856 842 838 833 826
763 764 765 764 766 771 777 783 789 794 804 810 817 819 820 838 844 845 842 838 839 844 846 847 856 856 862 853 861 869 870 873 868 871 875 881 882 881 858 886 884 857 834 834 823 818 812
761 763 761 761 763 768 774 781 786 793 798 799 804 813 822 829 834 833 833 837 837 842 840 852 853 853 864 865 866 870 877 882 881 884 876 876 879 876 872 889 868 823 856 846 830 832 840
762 761 760 763 764 767 772 777 783 791 797 800 802 805 812 821 825 829 831 832 840 844 849 852 863 866 864 865 865 875 877 879 890 889 882 883 872 872 865 895 846 829 844 846 839 837 865
761 761 761 761 764 767 772 777 782 788 793 799 803 805 807 814 819 821 827 832 836 843 854 863 866 867 867 863 867 869 863 857 874 891 886 885 884 865 874 863 857 844 849 858 857 846 859
760 759 761 762 766 771 774 778 781 787 791 798 801 805 807 813 822 823 825 827 832 843 856 867 867 869 869 870 865 871 871 873 864 883 894 887 884 865 858 852 846 851 855 858 849 839 865
758 762 763 765 767 770 774 777 781 787 790 795 800 803 806 812 825 825 827 828 832 839 844 860 860 869 871 869 863 861 868 865 874 880 879 868 867 871 861 858 856 858 855 842 859 868 867
759 760 763 764 765 768 773 776 780 785 787 792 797 801 805 810 824 827 829 830 833 834 836 846 843 848 845 853 854 846 849 857 864 851 869 855 840 846 842 834 858 859 856 860 861 861 864